FW6934 Weather Reports


time (UTC)temp
F
wind
direction
speed
knots
gust
knots
rain 1hr
in
rain 24hr
in
rain mn
in
humidity
%
barometer
mb
20260509125042 48 245 0.0 0.0 0.00 0.00 0.00 88 1008.7
20260509124522 48 245 0.0 0.0 0.00 0.00 0.00 88 1008.7
20260509124026 48 245 0.0 0.0 0.00 0.00 0.00 88 1008.6
20260509123530 48 245 0.0 0.0 0.00 0.00 0.00 88 1008.7
20260509123059 48 245 0.0 0.0 0.00 0.00 0.00 88 1008.7
20260509122600 48 245 0.0 0.0 0.00 0.00 0.00 88 1008.8
20260509122100 48 245 0.0 0.0 0.00 0.00 0.00 88 1008.9
20260509122003 48 245 0.0 0.0 0.00 0.00 0.00 87 1008.9
20260509121544 48 245 0.0 0.0 0.00 0.00 0.00 87 1008.9
20260509121048 48 245 0.0 0.0 0.00 0.00 0.00 87 1008.9
20260509120555 48 245 0.0 0.0 0.00 0.00 0.00 87 1009.0
20260509120026 48 245 0.0 0.0 0.00 0.00 0.00 87 1009.0
20260509115534 48 245 0.0 0.0 0.00 0.00 0.00 87 1009.0
20260509115042 48 245 0.0 0.0 0.00 0.00 0.00 87 1009.0
20260509114515 48 245 0.0 0.0 0.00 0.00 0.00 87 1008.9
20260509114021 48 245 0.0 0.0 0.00 0.00 0.00 87 1009.0
20260509113535 48 245 0.0 0.0 0.00 0.00 0.00 87 1009.1
20260509113046 48 245 0.0 0.0 0.00 0.00 0.00 87 1009.0
20260509112551 49 245 0.0 0.0 0.00 0.00 0.00 87 1009.1
20260509112103 49 245 0.0 0.0 0.00 0.00 0.00 87 1009.0
20260509111535 49 245 0.0 0.0 0.00 0.00 0.00 87 1009.2
20260509111036 49 245 0.0 0.0 0.00 0.00 0.00 87 1009.3
20260509110540 49 245 0.0 0.0 0.00 0.00 0.00 86 1009.3
20260509110007 49 245 0.0 0.0 0.00 0.00 0.00 86 1009.3
20260509105518 49 245 0.0 0.0 0.00 0.00 0.00 86 1009.4
20260509105024 49 245 0.0 0.0 0.00 0.00 0.00 86 1009.4
20260509104554 49 245 0.0 0.0 0.00 0.00 0.00 86 1009.6
20260509104056 49 245 0.0 0.0 0.00 0.00 0.00 86 1009.6
20260509103557 49 245 0.0 0.0 0.00 0.00 0.00 86 1009.6
20260509103034 49 245 0.0 0.0 0.00 0.00 0.00 86 1009.7
20260509102541 49 245 0.0 0.0 0.00 0.00 0.00 86 1009.6
20260509102043 50 245 0.0 0.0 0.00 0.00 0.00 86 1009.7
20260509101519 50 245 0.0 0.0 0.00 0.00 0.00 86 1009.6
20260509101023 50 245 0.0 0.0 0.00 0.00 0.00 86 1009.6
20260509100530 50 245 0.0 0.0 0.00 0.00 0.00 86 1009.7
20260509100104 50 245 0.0 0.0 0.00 0.00 0.00 86 1009.8
20260509095502 50 245 0.0 0.0 0.00 0.00 0.00 86 1009.7
20260509095008 50 245 0.0 0.0 0.00 0.00 0.00 85 1009.7
20260509094549 50 245 0.0 0.0 0.00 0.00 0.00 85 1009.7
20260509094049 50 245 0.0 0.0 0.00 0.00 0.00 85 1009.6
20260509093555 50 245 0.0 0.0 0.00 0.00 0.00 85 1009.7
20260509093024 50 245 0.0 0.0 0.00 0.00 0.00 85 1009.7
20260509092527 50 245 0.0 0.0 0.00 0.00 0.00 85 1009.8
20260509092033 51 245 0.0 0.0 0.00 0.00 0.00 85 1009.8
20260509091602 51 245 0.0 0.0 0.00 0.00 0.00 85 1009.9
20260509091006 51 245 0.0 0.0 0.00 0.00 0.00 84 1009.9
20260509090512 51 245 0.0 0.0 0.00 0.00 0.00 84 1010.0
20260509090048 51 245 0.0 0.0 0.00 0.00 0.00 84 1009.7
20260509085545 51 245 0.0 0.0 0.00 0.00 0.00 84 1009.9
20260509085051 51 245 0.0 0.0 0.00 0.00 0.00 83 1009.8
20260509084531 51 245 0.0 0.0 0.00 0.00 0.00 83 1009.9
20260509084030 51 245 0.0 0.0 0.00 0.00 0.00 83 1010.1
20260509083536 52 245 0.0 0.0 0.00 0.00 0.00 83 1010.0
20260509083001 52 245 0.0 0.0 0.00 0.00 0.00 83 1010.0
20260509082518 52 245 0.0 0.0 0.00 0.00 0.00 83 1010.1
20260509082004 52 245 0.0 0.0 0.00 0.00 0.00 82 1010.2
20260509081547 52 245 0.0 0.0 0.00 0.00 0.00 83 1010.2
20260509081052 52 245 0.0 0.0 0.00 0.00 0.00 82 1010.3
20260509080549 52 245 0.0 0.0 0.00 0.00 0.00 82 1010.2
20260509080022 52 245 0.0 0.0 0.00 0.00 0.00 82 1010.3
20260509075527 53 245 0.0 0.0 0.00 0.00 0.00 82 1010.3
20260509075030 53 245 0.0 0.0 0.00 0.00 0.00 82 1010.4
20260509074600 53 245 0.0 0.0 0.00 0.00 0.00 81 1010.3
20260509074001 53 245 0.0 3.5 0.00 0.00 0.00 81 1010.4
20260509073517 53 243 0.0 3.5 0.00 0.00 0.00 81 1010.4
20260509073041 53 263 0.0 0.0 0.00 0.00 0.00 81 1010.4
20260509072548 53 248 0.0 0.0 0.00 0.00 0.00 81 1010.4
20260509072054 53 248 0.0 1.7 0.00 0.00 0.00 80 1010.4
20260509071523 54 248 0.0 2.6 0.00 0.00 0.00 80 1010.4
20260509071031 54 248 0.9 3.5 0.00 0.00 0.00 80 1010.5
20260509070537 54 255 1.7 3.5 0.00 0.00 0.00 80 1010.4
20260509070104 54 264 0.9 2.6 0.00 0.00 0.00 80 1010.4
20260509065515 54 11 0.0 2.6 0.00 0.00 0.00 80 1010.4
20260509065020 54 11 0.0 2.6 0.00 0.00 0.00 79 1010.5
20260509064558 55 11 0.0 1.7 0.00 0.00 0.00 79 1010.4
20260509064049 55 11 0.9 1.7 0.00 0.00 0.00 78 1010.4
20260509063558 55 11 0.9 1.7 0.00 0.00 0.00 78 1010.4
20260509063040 55 11 0.0 2.6 0.00 0.00 0.00 78 1010.4
20260509062546 55 11 0.9 2.6 0.00 0.00 0.00 77 1010.4
20260509062055 56 11 0.9 2.6 0.00 0.00 0.00 76 1010.3
20260509061506 56 11 0.9 1.7 0.00 0.00 0.00 76 1010.3
20260509061016 56 11 0.9 1.7 0.00 0.00 0.00 76 1010.4
20260509060511 56 11 0.0 1.7 0.00 0.00 0.00 76 1010.3
20260509055554 57 11 0.0 1.7 0.00 0.00 0.00 75 1010.3
20260509055055 57 11 0.0 0.0 0.00 0.00 0.00 74 1010.3
20260509054532 57 11 0.0 0.0 0.00 0.00 0.00 74 1010.4
20260509054045 58 11 0.0 0.0 0.00 0.00 0.00 74 1010.4
20260509053545 58 11 0.0 0.0 0.00 0.00 0.00 73 1010.4
20260509053026 58 11 0.0 0.0 0.00 0.00 0.00 72 1010.3
20260509052526 58 11 0.0 0.0 0.00 0.00 0.00 72 1010.3
20260509052033 58 11 0.0 0.0 0.00 0.00 0.00 72 1010.2
20260509051540 59 11 0.0 1.7 0.00 0.00 0.00 71 1010.1
20260509051050 59 11 0.0 2.6 0.00 0.00 0.00 71 1010.2
20260509050556 59 11 0.9 2.6 0.00 0.00 0.00 71 1010.1
20260509050046 59 292 0.0 0.0 0.00 0.00 0.00 70 1010.1
20260509045540 59 292 0.0 0.0 0.00 0.00 0.00 70 1010.0
20260509045048 59 292 0.0 0.0 0.00 0.00 0.00 70 1010.0
20260509044532 59 292 0.0 0.9 0.00 0.00 0.00 69 1010.0
20260509044023 60 292 0.0 0.9 0.00 0.00 0.00 69 1009.9
20260509043529 60 292 0.0 0.0 0.00 0.00 0.00 69 1009.8
20260509043107 60 292 0.0 0.0 0.00 0.00 0.00 69 1009.7
20260509042555 60 292 0.0 0.0 0.00 0.00 0.00 69 1009.7
20260509042105 61 292 0.0 0.0 0.00 0.00 0.00 69 1009.7
20260509041538 61 292 0.0 0.0 0.00 0.00 0.00 68 1009.7
20260509041048 61 292 0.0 0.9 0.00 0.00 0.00 67 1009.6
20260509040548 62 292 0.0 2.6 0.00 0.00 0.00 66 1009.6
20260509040026 62 292 0.9 2.6 0.00 0.00 0.00 66 1009.4
20260509035534 62 291 0.0 1.7 0.00 0.00 0.00 66 1009.4
20260509035034 62 291 0.0 1.7 0.00 0.00 0.00 65 1009.4
20260509034548 62 291 0.0 2.6 0.00 0.00 0.00 65 1009.4
20260509034044 63 291 0.9 4.3 0.00 0.00 0.00 64 1009.4
20260509033554 63 306 1.7 4.3 0.00 0.00 0.00 64 1009.3
20260509033031 63 294 0.0 2.6 0.00 0.00 0.00 65 1009.2
20260509032541 63 288 0.9 3.5 0.00 0.00 0.00 64 1009.2
20260509032051 63 263 1.7 5.2 0.00 0.00 0.00 64 1009.2
20260509031526 63 255 0.9 3.5 0.00 0.00 0.00 64 1009.1
20260509031031 64 305 0.0 3.5 0.00 0.00 0.00 63 1009.1
20260509030541 64 273 0.9 3.5 0.00 0.00 0.00 63 1009.0
20260509030016 64 5 0.9 3.5 0.00 0.00 0.00 63 1009.0
20260509025511 64 42 0.9 3.5 0.00 0.00 0.00 64 1009.0
20260509025017 64 338 0.0 2.6 0.00 0.00 0.00 65 1008.9
20260509024541 64 346 0.0 1.7 0.00 0.00 0.00 63 1008.9
20260509024056 64 348 0.0 1.7 0.00 0.00 0.00 63 1008.9
20260509023601 64 355 0.0 2.6 0.00 0.00 0.00 63 1008.9
20260509023051 64 355 0.9 2.6 0.00 0.00 0.00 64 1008.9
20260509022545 64 320 0.9 2.6 0.00 0.00 0.00 64 1008.8
20260509022058 65 24 0.0 0.9 0.00 0.00 0.00 63 1008.7
20260509021532 65 24 0.0 0.9 0.00 0.00 0.00 63 1008.7
20260509021037 65 24 0.0 0.0 0.00 0.00 0.00 64 1008.8
20260509020549 65 24 0.0 0.0 0.00 0.00 0.00 64 1008.8
20260509020011 65 24 0.0 0.9 0.00 0.00 0.00 63 1008.8
20260509015526 65 24 0.0 1.7 0.00 0.00 0.00 65 1008.8
20260509015036 65 24 0.9 1.7 0.00 0.00 0.00 63 1008.8
20260509014514 65 30 0.0 0.9 0.00 0.00 0.00 62 1008.8
20260509014020 65 30 0.0 0.9 0.00 0.00 0.00 63 1008.8
20260509013517 65 30 0.0 1.7 0.00 0.00 0.00 63 1008.7
20260509013103 65 30 0.0 1.7 0.00 0.00 0.00 61 1008.8
20260509012547 65 30 0.0 2.6 0.00 0.00 0.00 58 1008.8
20260509012054 64 30 0.9 2.6 0.00 0.00 0.00 61 1008.9
20260509011530 64 30 0.0 0.9 0.00 0.00 0.00 64 1009.0
20260509011035 63 30 0.0 0.0 0.00 0.00 0.00 64 1009.0
20260509010543 63 29 0.0 0.0 0.00 0.00 0.00 65 1009.1
20260509010019 63 27 0.0 0.9 0.00 0.00 0.00 63 1009.1
20260509005525 63 27 0.0 0.9 0.00 0.00 0.00 65 1009.1
20260509005033 63 28 0.0 0.9 0.00 0.00 0.00 63 1009.0
20260509004506 64 28 0.0 0.0 0.00 0.00 0.00 64 1009.0
20260509004013 64 28 0.0 0.0 0.00 0.00 0.00 63 1009.0
20260509003521 65 31 0.0 0.9 0.00 0.00 0.00 63 1009.0
20260509003102 65 36 0.0 0.9 0.00 0.00 0.00 61 1009.0
20260509002503 65 45 0.0 0.0 0.00 0.00 0.00 60 1009.0
20260509002009 65 44 0.0 0.0 0.00 0.00 0.00 58 1009.1
20260509001549 65 44 0.0 1.7 0.00 0.00 0.00 60 1009.1
20260509001056 65 44 0.0 1.7 0.00 0.00 0.00 60 1009.1
20260509000503 65 44 0.0 1.7 0.00 0.00 0.00 57 1009.1
20260509000037 66 44 0.0 2.6 0.00 0.00 0.00 57 1009.2
20260508235546 66 44 0.0 2.6 0.00 0.00 0.00 56 1009.1
20260508235051 66 44 1.7 3.5 0.00 0.00 0.00 56 1009.1
20260508234511 66 338 1.7 3.5 0.00 0.00 0.00 58 1009.2
20260508234059 66 271 0.9 3.5 0.00 0.00 0.00 54 1009.3
20260508233547 66 52 0.0 5.2 0.00 0.00 0.00 55 1009.3
20260508233007 66 57 2.6 5.2 0.00 0.00 0.00 57 1009.3
20260508232557 66 69 0.9 2.6 0.00 0.00 0.00 56 1009.3
20260508232045 66 181 0.0 4.3 0.00 0.00 0.00 54 1009.3
20260508231506 67 250 2.6 5.2 0.00 0.00 0.00 53 1009.3
20260508231056 66 335 2.6 4.3 0.00 0.00 0.00 53 1009.2
20260508230546 66 301 1.7 7.0 0.00 0.00 0.00 54 1009.3
20260508230103 66 265 4.3 10.4 0.00 0.00 0.00 53 1009.4
20260508225549 67 259 2.6 10.4 0.00 0.00 0.00 52 1009.3
20260508225037 66 103 0.9 5.2 0.00 0.00 0.00 52 1009.3
20260508224609 66 260 2.6 5.2 0.00 0.00 0.00 53 1009.4
20260508224043 66 131 2.6 7.0 0.00 0.00 0.00 54 1009.3
20260508223535 66 311 3.5 7.0 0.00 0.00 0.00 53 1009.4
20260508223047 65 32 0.0 4.3 0.00 0.00 0.00 55 1009.4
20260508222533 66 286 1.7 4.3 0.00 0.00 0.00 53 1009.4
20260508222016 66 53 1.7 7.0 0.00 0.00 0.00 56 1009.5
20260508221536 66 271 3.5 7.0 0.00 0.00 0.00 54 1009.4
20260508221022 66 315 2.6 7.0 0.00 0.00 0.00 53 1009.4
20260508220505 66 242 0.9 7.0 0.00 0.00 0.00 53 1009.5
20260508220031 66 309 1.7 7.8 0.00 0.00 0.00 54 1009.5
20260508215513 66 161 4.3 7.8 0.00 0.00 0.00 56 1009.4
20260508215002 65 101 1.7 3.5 0.00 0.00 0.00 55 1009.4
20260508214531 64 286 0.0 6.1 0.00 0.00 0.00 54 1009.4
20260508214023 65 286 1.7 6.1 0.00 0.00 0.00 54 1009.5
20260508213507 66 209 0.9 5.2 0.00 0.00 0.00 54 1009.6
20260508213028 65 296 1.7 5.2 0.00 0.00 0.00 56 1009.5
20260508212519 65 188 0.9 7.0 0.00 0.00 0.00 58 1009.4
20260508212005 65 61 1.7 4.3 0.00 0.00 0.00 57 1009.3
20260508211526 64 360 1.7 2.6 0.00 0.00 0.00 55 1009.4
20260508211016 64 304 0.0 6.1 0.00 0.00 0.00 57 1009.4
20260508210506 64 296 1.7 6.1 0.00 0.00 0.00 58 1009.6
20260508210033 63 236 0.9 6.1 0.00 0.00 0.00 58 1009.5
20260508205521 63 275 0.9 5.2 0.00 0.00 0.00 56 1009.5
20260508205110 64 239 0.9 5.2 0.00 0.00 0.00 56 1009.6
20260508204048 64 219 0.0 4.3 0.00 0.00 0.00 57 1009.6
20260508203509 63 344 0.9 5.2 0.00 0.00 0.00 56 1009.4
20260508203011 63 199 0.0 4.3 0.00 0.00 0.00 58 1009.4
20260508202600 63 319 0.9 5.2 0.00 0.00 0.00 58 1009.4
20260508202047 62 39 1.7 5.2 0.00 0.00 0.00 58 1009.4
20260508201517 62 30 0.0 2.6 0.00 0.00 0.00 57 1009.6
20260508201009 62 150 0.0 5.2 0.00 0.00 0.00 58 1009.6
20260508200555 62 128 2.6 5.2 0.00 0.00 0.00 57 1009.6
20260508200015 63 158 2.6 5.2 0.00 0.00 0.00 57 1009.6
20260508195559 62 38 1.7 5.2 0.00 0.00 0.00 57 1009.5
20260508195017 60 221 0.0 3.5 0.00 0.00 0.00 62 1009.7
20260508194545 60 186 0.9 3.5 0.00 0.00 0.00 60 1009.7
20260508194033 60 83 0.9 3.5 0.00 0.00 0.00 60 1009.7
20260508193519 60 143 0.9 3.5 0.00 0.00 0.00 62 1009.7
20260508193115 60 167 0.0 4.3 0.00 0.00 0.00 62 1009.7
20260508192527 60 273 1.7 4.3 0.00 0.00 0.00 61 1009.8
20260508192017 61 202 0.0 6.1 0.00 0.00 0.00 59 1009.8
20260508191532 62 280 1.7 6.1 0.00 0.00 0.00 60 1009.7
20260508191002 61 168 0.9 4.3 0.00 0.00 0.00 61 1009.7
20260508190535 61 171 0.9 7.8 0.00 0.00 0.00 61 1009.7
20260508185517 60 201 5.2 7.8 0.00 0.00 0.00 61 1009.7
20260508185002 60 232 1.7 3.5 0.00 0.00 0.00 64 1009.7
20260508184517 59 355 0.0 7.8 0.00 0.00 0.00 63 1009.8
20260508184002 58 159 3.5 7.8 0.00 0.00 0.00 66 1009.9
20260508183553 58 85 1.7 3.5 0.00 0.00 0.00 64 1009.9
20260508183019 59 208 0.9 6.1 0.00 0.00 0.00 63 1009.8
20260508182600 60 181 0.9 6.1 0.00 0.00 0.00 62 1009.9
20260508182038 60 185 1.7 6.1 0.00 0.00 0.00 64 1009.8
20260508181540 59 128 1.7 7.0 0.00 0.00 0.00 63 1009.7
20260508181018 59 126 1.7 7.0 0.00 0.00 0.00 64 1009.7
20260508180557 59 195 1.7 7.0 0.00 0.00 0.00 64 1009.7
20260508180012 58 159 3.5 7.0 0.00 0.00 0.00 65 1009.6
20260508175555 57 150 1.7 6.1 0.00 0.00 0.00 65 1009.6
20260508175043 58 236 3.5 7.0 0.00 0.00 0.00 65 1009.5
20260508174503 58 317 2.6 7.0 0.00 0.00 0.00 65 1009.5
20260508174058 58 240 2.6 7.0 0.00 0.00 0.00 68 1009.5
20260508173542 57 219 0.9 7.0 0.00 0.00 0.00 67 1009.4
20260508173003 57 349 0.9 6.1 0.00 0.00 0.00 69 1009.5
20260508172551 56 49 0.9 8.7 0.00 0.00 0.00 67 1009.4
20260508172039 56 148 1.7 8.7 0.00 0.00 0.00 69 1009.3
20260508171515 56 245 1.7 6.1 0.00 0.00 0.00 69 1009.4
20260508171059 55 131 0.9 4.3 0.00 0.00 0.00 71 1009.4
20260508170546 55 166 0.9 4.3 0.00 0.00 0.00 71 1009.4
20260508170006 55 338 0.0 7.0 0.00 0.00 0.00 70 1009.3
20260508165555 55 333 0.9 7.0 0.00 0.00 0.00 70 1009.3
20260508165042 55 10 0.0 5.2 0.00 0.00 0.00 70 1009.2
20260508164503 55 178 0.0 2.6 0.00 0.00 0.00 69 1009.2
20260508164053 55 184 0.9 2.6 0.00 0.00 0.00 69 1009.1
20260508163530 55 172 0.9 6.1 0.00 0.00 0.00 70 1009.1
20260508163057 55 186 1.7 6.1 0.00 0.00 0.00 69 1009.1
20260508162528 55 201 1.7 7.0 0.00 0.00 0.00 71 1008.9
20260508162016 54 184 0.9 5.2 0.00 0.00 0.00 72 1008.7
20260508161543 54 183 1.7 5.2 0.00 0.00 0.00 71 1008.8
20260508161025 54 210 0.9 7.0 0.00 0.00 0.00 70 1008.9
20260508160512 54 219 0.9 7.0 0.00 0.00 0.00 71 1008.8
20260508160043 54 192 1.7 5.2 0.00 0.00 0.00 71 1008.8
20260508155525 54 231 0.9 2.6 0.00 0.00 0.00 72 1008.9
20260508155013 54 210 0.9 2.6 0.00 0.00 0.00 72 1008.7
20260508154544 54 62 0.9 2.6 0.00 0.00 0.00 72 1008.7
20260508154031 54 220 0.0 2.6 0.00 0.00 0.00 73 1008.7
20260508152553 52 28 0.0 2.6 0.00 0.00 0.00 80 1008.7
20260508152041 52 28 0.0 2.6 0.00 0.00 0.00 80 1008.6
20260508151506 51 20 0.0 2.6 0.00 0.00 0.00 81 1008.6
20260508151054 51 20 0.9 2.6 0.00 0.00 0.00 80 1008.6
20260508150544 51 20 0.9 2.6 0.00 0.00 0.00 80 1008.5
20260508150013 50 5 0.9 2.6 0.00 0.00 0.00 81 1008.7
20260508145601 50 5 0.0 1.7 0.00 0.00 0.00 81 1008.5
20260508145048 50 5 0.0 0.9 0.00 0.00 0.00 81 1008.6
20260508144510 50 5 0.0 0.9 0.00 0.00 0.00 82 1008.6
20260508144103 50 5 0.0 0.9 0.00 0.00 0.00 82 1008.7
20260508143549 50 5 0.0 1.7 0.00 0.00 0.00 82 1008.6
20260508143009 50 5 0.0 3.5 0.00 0.00 0.00 83 1008.5
20260508142600 49 5 0.9 3.5 0.00 0.00 0.00 83 1008.6
20260508142049 49 321 0.9 1.7 0.00 0.00 0.00 83 1008.6
20260508141512 49 321 0.9 2.6 0.00 0.00 0.00 84 1008.6
20260508141100 49 321 0.9 2.6 0.00 0.00 0.00 84 1008.6
20260508140548 48 267 0.9 1.7 0.00 0.00 0.00 85 1008.5
20260508140006 48 294 0.9 1.7 0.00 0.00 0.00 85 1008.5
20260508135557 48 294 0.0 0.9 0.00 0.00 0.00 84 1008.5
20260508135045 48 294 0.0 0.0 0.00 0.00 0.00 84 1008.1
20260508134514 47 294 0.0 0.0 0.00 0.00 0.00 84 1008.0
20260508134002 47 294 0.0 0.9 0.00 0.00 0.00 84 1007.9
20260508133553 47 294 0.0 1.7 0.00 0.00 0.00 84 1007.8
20260508133012 48 294 0.0 2.6 0.00 0.00 0.00 84 1007.7
20260508132602 48 294 0.9 3.5 0.00 0.00 0.00 84 1007.7
20260508132049 48 291 0.9 3.5 0.00 0.00 0.00 85 1007.7
20260508131508 48 271 0.0 2.6 0.00 0.00 0.00 85 1007.5
20260508131102 48 271 0.0 2.6 0.00 0.00 0.00 84 1007.3
20260508130550 48 197 0.0 0.9 0.00 0.00 0.00 84 1007.2
20260508130006 48 268 0.0 2.6 0.00 0.00 0.00 84 1007.2
20260508125557 48 268 0.9 2.6 0.00 0.00 0.00 84 1007.1